AO-07 1 07530U 74089B 25292.30180791 -.00000014 00000-0 20071-3 0 9991 2 07530 101.9987 297.9901 0011965 230.3967 141.0493 12.53692613330333 UO-11 1 14781U 84021B 25291.86024091 .00003390 00000-0 35841-3 0 9994 2 14781 97.7720 255.7782 0005999 261.4852 98.5686 14.89861294221189 AO-27 1 22825U 93061C 25292.17531739 .00000256 00000-0 11456-3 0 9997 2 22825 98.7223 354.2932 0009501 88.3098 271.9173 14.30847259672537 FO-29 1 24278U 96046B 25292.28347690 .00000041 00000-0 78419-4 0 9995 2 24278 98.5521 168.7137 0350040 1.4663 358.7423 13.53257181440589 NOAA-15 1 25338U 98030A 25292.28026007 .00000307 00000-0 14361-3 0 9994 2 25338 98.5282 314.2032 0009770 339.7837 20.2956 14.27038201426931 GO-32 1 25397U 98043D 25292.26603482 .00000209 00000-0 11065-3 0 9998 2 25397 98.9869 274.2331 0001476 146.2599 213.8673 14.24354179417038 ISS 1 25544U 98067A 25292.49238527 .00016769 00000-0 30915-3 0 9990 2 25544 51.6341 51.0415 0004290 310.7772 49.2843 15.49246617534445 NO-44 1 26931U 01043C 25292.11235129 .00000337 00000-0 15693-3 0 9993 2 26931 67.0493 147.7433 0007123 273.3112 86.7175 14.31808413255934 SO-50 1 27607U 02058C 25292.02045748 .00002430 00000-0 31094-3 0 9996 2 27607 64.5526 154.6796 0068650 306.8210 52.6610 14.82099366228702 CO-55 1 27844U 03031E 25292.07028774 .00000611 00000-0 28463-3 0 9991 2 27844 98.6787 298.6734 0009928 159.6633 200.4943 14.24110788157351 CO-57 1 27848U 03031J 25292.22131443 .00000561 00000-0 26637-3 0 9995 2 27848 98.6816 298.7274 0009508 176.5915 183.5330 14.23429519157099 RS-22 1 27939U 03042A 25292.30079032 .00002769 00000-0 44178-3 0 9994 2 27939 98.3371 105.0626 0010576 317.0174 144.0112 14.72736137180086 CO-58 1 28895U 05043F 25292.32323592 .00004532 00000-0 73645-3 0 9995 2 28895 98.2679 78.5073 0013396 247.8400 112.1385 14.71561880 66310 CO-65 1 32785U 08021C 25292.24180025 .00013385 00000-0 91919-3 0 9990 2 32785 97.8015 264.6187 0011526 119.6593 240.5783 15.06044236948887 CO-66 1 32791U 08021J 25292.20820758 .00034666 00000-0 14854-2 0 9994 2 32791 97.7405 275.5973 0006389 81.2755 278.9204 15.22667997950491 RS-30 1 32953U 08025A 25292.30701765 .00000046 00000-0 25576-3 0 9994 2 32953 82.5017 145.2814 0019791 116.1089 244.2030 12.43169494789760 NOAA-19 1 33591U 09005A 25292.22867182 .00000126 00000-0 90927-4 0 9991 2 33591 98.9838 357.5860 0013579 356.1743 3.9323 14.13419146860442 SRMSAT 1 37841U 11058D 25292.11022961 .00000539 00000-0 14882-3 0 9993 2 37841 19.9718 78.5720 0011836 71.4779 88.2983 14.11482868723714 ZACUBE-1 1 39417U 13066B 25291.84163741 .00012134 00000-0 10087-2 0 9992 2 39417 97.7972 248.3692 0041846 336.8152 23.1181 14.98179095644555 Delfi-N3xt 1 39428U 13066N 25292.25577467 .00021908 00000-0 21090-2 0 9999 2 39428 97.8301 208.5434 0079175 287.0627 72.1929 14.90605390638670 GOMX-1 1 39430U 13066Q 25292.32003065 .00004575 00000-0 70274-3 0 9998 2 39430 97.6660 142.8475 0132147 130.1025 231.1853 14.68238769634556 LO-74 1 39440U 13066AA 25292.33208571 .00011157 00000-0 10887-2 0 9996 2 39440 97.8614 236.1378 0062614 104.4235 256.3943 14.91109335641060 AO-73 1 39444U 13066AE 25292.14693159 .00018398 00000-0 12911-2 0 9993 2 39444 97.7979 254.8348 0037849 304.5466 55.2190 15.04628764643353 DTUSAT-2 1 40030U 14033W 25291.90638599 .00016560 00000-0 10098-2 0 9994 2 40030 98.0696 270.3569 0008201 351.0470 9.0611 15.10406932616203 EO-80 1 40032U 14033Y 25292.25076099 .00018300 00000-0 11126-2 0 9993 2 40032 98.0580 270.1912 0005895 278.5620 81.4940 15.10504176616234 LILACSAT-2 1 40908U 15049K 25292.34729685 .00029382 00000-0 67712-3 0 9994 2 40908 97.4984 316.1254 0009949 55.4979 304.7206 15.42500712558519 IO-86 1 40931U 15052B 25151.18580175 .00001241 00000-0 78118-4 0 9996 2 40931 6.0006 24.0987 0012733 338.8432 21.1169 14.78805930523159 Horyu-4 1 41340U 16012D 25291.79475140 .00058475 00000-0 12071-2 0 9990 2 41340 30.9954 325.4592 0003182 7.5282 352.5413 15.44565291533031 Lapan A3 1 41603U 16040E 25292.32441552 .00007998 00000-0 26953-3 0 9992 2 41603 97.1424 291.8845 0011697 149.3024 210.8905 15.30929070517933 CAS-2T 1 41847U 16066G 25292.16123065 .00003726 00000-0 53156-3 0 9998 2 41847 98.4099 5.4348 0345399 140.1626 222.5477 14.43912001470007 CAS-4B 1 42759U 17034B 25286.97241530 .03437790 89859-5 10544-2 0 9999 2 42759 42.9888 273.3261 0008257 129.3938 230.7682 16.25684504462550 CAS-4A 1 42761U 17034D 25281.34159269 .04203186 90411-5 12507-2 0 9993 2 42761 42.9927 303.5081 0008135 81.2710 278.9099 16.26032227461692 TechnoSat 1 42829U 17042E 25292.27311314 .00010060 00000-0 75345-3 0 9995 2 42829 97.4011 94.8586 0018378 195.1440 164.9238 15.02761363450499 AO-91 1 43017U 17073E 25292.16791470 .00019115 00000-0 92009-3 0 9998 2 43017 97.5027 159.6548 0167517 77.5796 284.4121 15.07196318429012 S-Net D 1 43186U 18014G 25292.28893479 .00013876 00000-0 77984-3 0 9999 2 43186 97.5482 193.8577 0010259 123.9719 236.2488 15.13367750422287 S-Net B 1 43187U 18014H 25292.29613637 .00013242 00000-0 74477-3 0 9998 2 43187 97.5488 193.8429 0011055 120.3215 239.9111 15.13344266422287 S-Net A 1 43188U 18014J 25292.28885563 .00013892 00000-0 78049-3 0 9997 2 43188 97.5496 194.0037 0010894 120.9164 239.3139 15.13373052422283 S-Net C 1 43189U 18014K 25292.29890152 .00012978 00000-0 72983-3 0 9994 2 43189 97.5513 194.0503 0012556 115.2475 245.0059 15.13337887420831 Ten-Koh 1 43677U 18084G 25292.26737558 .00005933 00000-0 46570-3 0 9996 2 43677 98.0705 109.7383 0009060 180.0675 180.0549 15.01296836379996 PO-101 1 43678U 18084H 25292.32441296 .00006150 00000-0 51193-3 0 9994 2 43678 98.1075 113.5945 0007484 190.8485 169.2576 14.99035283380119 QO-100 1 43700U 18090A 25292.27217058 .00000142 00000-0 00000-0 0 9991 2 43700 0.0181 231.6952 0001807 15.9843 264.0973 1.00270619 25262 MinXSS-2 1 43758U 18099A 25292.17410287 .00046762 00000-0 15584-2 0 9994 2 43758 97.4881 358.9313 0011222 56.7842 303.4473 15.30891704377063 AO-95 1 43770U 18099N 25292.12160837 .00021866 00000-0 10127-2 0 9992 2 43770 97.4765 348.8595 0011410 112.6850 247.5593 15.20060452376515 SNUSat 2 1 43782U 18099AA 25292.26054365 .00018970 00000-0 96333-3 0 9994 2 43782 97.4446 344.6317 0012773 62.3546 297.8983 15.16868342376448 SnugLite 1 43784U 18099AC 25292.25373449 .00023929 00000-0 10974-2 0 9998 2 43784 97.4260 344.4966 0004535 70.2176 289.9548 15.20431733376620 ITASat 1 1 43786U 18099AE 25292.09256315 .00015491 00000-0 83282-3 0 9992 2 43786 97.4417 343.5661 0015258 110.1526 250.1350 15.14867662376353 EAGLET 1 1 43790U 18099AJ 25292.25926854 .00009969 00000-0 61010-3 0 9995 2 43790 97.4614 343.2032 0013436 97.1645 263.1112 15.10333939375932 ESEO 1 43792U 18099AL 25292.10162335 .00002999 00000-0 22571-3 0 9992 2 43792 97.4332 334.5035 0014576 77.5717 282.7139 15.03168338375572 JO-97 1 43803U 18099AX 25292.24560587 .00032666 00000-0 13278-2 0 9998 2 43803 97.4513 350.3133 0007776 52.9877 307.2071 15.24454783376809 Suomi 100 1 43804U 18099AY 25292.09854925 .00023210 00000-0 10341-2 0 9997 2 43804 97.4579 349.0399 0012601 54.7025 305.5387 15.21367992376677 ISAT 1 43879U 18111D 25292.25591324 .00063870 00000-0 17710-2 0 9996 2 43879 97.5881 210.0103 0011003 90.8974 269.3531 15.36648532373869 UWE-4 1 43880U 18111E 25292.31121245 .00045150 00000-0 15049-2 0 9990 2 43880 97.5824 207.4910 0013605 102.2292 258.0473 15.30867011373741 Sparrow 1 43881U 18111F 25292.31105882 .00069116 00000-0 18097-2 0 9994 2 43881 97.6053 213.5188 0009088 114.0429 246.1768 15.38421613373988 Prox-1 1 44339U 19036A 25292.24884206 .00028924 00000-0 34197-2 0 9997 2 44339 23.9966 275.0945 0007435 138.5486 221.5576 14.83176653337562 Taurus 1 1 44530U 19059C 25292.32959734 .00018556 00000-0 32477-2 0 9992 2 44530 98.6204 78.2496 0008689 346.0569 14.0393 14.67856670323252 Duchifat 3 1 44854U 19089C 25292.18076825 .00244305 00000-0 21917-2 0 9999 2 44854 36.9346 229.5417 0009628 255.1746 104.7951 15.66545435323495 TO-108 1 44881U 19093C 25292.29329442 .00002016 00000-0 23690-3 0 9994 2 44881 97.7816 5.1328 0014300 153.9844 206.2093 14.85915067315632 FloripaSat 1 1 44885U 19093G 25292.30301126 .00015627 00000-0 12518-2 0 9997 2 44885 97.8093 20.2716 0011025 138.0682 222.1387 15.00188777316483 RS-44 1 44909U 19096E 25292.28815434 .00000048 00000-0 15082-3 0 9997 2 44909 82.5193 139.7969 0217354 347.9029 11.6899 12.79744734271536 UPMSat 2 1 46276U 20061E 25284.11510829 .12115553 24945-5 13983-3 0 9991 2 46276 97.2106 5.1352 0012001 257.8540 102.1421 16.49625583285008 SALSAT 1 46495U 20068K 25292.22504609 .00018450 00000-0 74045-3 0 9993 2 46495 97.8745 276.6245 0012966 69.3885 290.8741 15.24963280278575 CSS (TIANHE-1) 1 48274U 21035A 25292.28748711 .00050741 00000-0 60508-3 0 9993 2 48274 41.4674 347.5472 0011403 242.6037 117.3642 15.60145536255527 TUBIN 1 48900U 21059X 25292.32100595 .00179976 00000-0 10359-2 0 9992 2 48900 97.6729 113.7016 0001701 107.6363 252.5089 15.78203723240675 LEDSAT 1 49069U 21073D 25287.95720868 .11134366 25314-5 40586-3 0 9991 2 49069 97.3489 17.4861 0013151 272.2565 87.7231 16.42992651231488 CUTE 1 49263U 21088D 25292.25115311 .00040972 00000-0 63313-3 0 9993 2 49263 97.4405 12.8422 0007010 110.7875 249.4130 15.53969679224822 TeikyoSat 4 1 49396U 21102B 25292.27386804 .00004067 00000-0 26582-3 0 9998 2 49396 97.3977 325.9089 0013611 47.7365 312.5016 15.08272802216399 Z-Sat 1 49399U 21102E 25292.25888364 .00010388 00000-0 54676-3 0 9995 2 49399 97.3668 329.8448 0017788 12.7559 347.4120 15.15678423216915 KOSEN 1 1 49402U 21102H 25292.23506406 .00016267 00000-0 70541-3 0 9993 2 49402 97.3563 334.2835 0014403 344.2626 15.8161 15.22343532217306 HO-113 1 50466U 21131B 25292.28354098 .00001177 00000-0 37997-3 0 9992 2 50466 98.5073 20.9795 0005278 101.1976 258.9806 14.40999627200410 SNUGLITE 2 1 52899U 22065F 25292.31949415 .00002980 00000-0 58249-3 0 9994 2 52899 98.1877 73.1840 0008523 64.6315 295.5769 14.63605329175758 UmKA 1 (RS40S) 1 57172U 23091G 25292.21450499 .00014124 00000-0 71416-3 0 9995 2 57172 97.5432 346.9335 0012567 234.4630 125.5432 15.17090180127420 CubeBel-2 (EU11S) 1 57175U 23091K 25292.25612783 .00024553 00000-0 10695-2 0 9996 2 57175 97.5428 349.0106 0010245 238.3682 121.6555 15.22154940127568 ENSO 1 58470U 23185J 25292.29995291 .00533354 00000-0 19520-2 0 9991 2 58470 97.3539 13.4872 0005973 277.8479 82.2114 15.87067879105647 SONATE-2 1 59112U 24043Q 25292.31186685 .00048039 00000-0 11486-2 0 9995 2 59112 97.5294 66.7083 0009726 5.6924 354.4431 15.41288028 90581 MO-122 1 60209U 24125G 25292.21970867 .00049947 00000-0 11638-2 0 9995 2 60209 97.2606 142.7074 0017330 28.2918 331.9267 15.41947309 72191 GRBBeta 1 60237U 24128C 25292.24702049 .00008160 00000-0 58162-3 0 9993 2 60237 61.9923 340.0734 0057026 85.0093 275.7506 15.03988783 69993 Curium One 1 60242U 24128H 25292.29640974 .00016080 00000-0 10276-2 0 9995 2 60242 61.9817 335.9717 0056863 81.4471 279.3060 15.07484589 70078 ROBUSTA-3A 1 60243U 24128J 25292.27782577 .00015910 00000-0 10339-2 0 9991 2 60243 61.9892 337.3439 0056488 79.0395 281.7046 15.06897685 70053 CatSat 1 60246U 24125J 25292.21772826 .00054699 00000-0 15330-2 0 9994 2 60246 97.2420 140.3559 0037244 346.8477 13.1792 15.35710207 70146 HYPERVIEW-1G (RS66S) 1 61772U 24199AP 25292.27426256 .00062817 00000-0 14401-2 0 9998 2 61772 97.3292 161.2325 0013918 79.7396 280.5420 15.42431215 97207 AO-123 1 61781U 24199AY 25292.30030314 .00017770 00000-0 60251-3 0 9991 2 61781 97.3322 158.3873 0017092 89.8195 270.5004 15.30457753 97010 ZIMSAT 2 1 61783U 24199BA 25292.30986971 .00159235 00000-0 23122-2 0 9990 2 61783 97.3226 163.3738 0012568 74.0847 286.1791 15.55168130100504 HADES-R (SO-124) 1 62690U 25009CK 25292.22033504 .00153054 00000-0 33932-2 0 9998 2 62690 97.3979 13.4379 0001917 310.9210 49.1871 15.43159205 42337 HYDRA-T 1 62692U 25009CM 25292.17181227 .00159634 00000-0 34591-2 0 9992 2 62692 97.3979 13.5022 0002052 296.5193 63.5844 15.43814206 42334 JINJUSat 1B 1 63210U 25052A 25292.27487773 .00031115 00000-0 12735-2 0 9992 2 63210 97.4228 184.8642 0002760 180.4733 179.6502 15.24257024 33288 NUSHSAT 1 1 63211U 25052B 25292.23528073 .00036735 00000-0 14716-2 0 9992 2 63211 97.4217 184.8863 0002428 184.4743 175.6473 15.24941351 33284 TEVEL2-4 1 63213U 25052D 25292.28102587 .00033591 00000-0 13667-2 0 9998 2 63213 97.4133 184.5902 0001116 191.1082 169.0131 15.24442145 33283 TEVEL2-5 1 63214U 25052E 25292.21867975 .00033359 00000-0 13594-2 0 9992 2 63214 97.4133 184.5214 0001116 192.0121 168.1090 15.24389867 33278 TEVEL2-6 1 63215U 25052F 25292.28995484 .00033311 00000-0 13591-2 0 9992 2 63215 97.4136 184.5827 0001105 192.6606 167.4604 15.24349742 33286 TEVEL2-1 1 63217U 25052H 25292.19059671 .00033632 00000-0 13839-2 0 9994 2 63217 97.4108 184.3390 0000828 248.4123 111.7026 15.24061743 33265 TEVEL2-3 1 63218U 25052J 25292.25606872 .00034986 00000-0 14384-2 0 9992 2 63218 97.4110 184.4069 0000860 250.3370 109.7775 15.24080829 33270 TEVEL2-2 1 63219U 25052K 25292.25702390 .00033843 00000-0 13924-2 0 9995 2 63219 97.4110 184.4044 0000787 245.5601 114.5554 15.24064166 33270 TEVEL2-9 1 63237U 25052AD 25292.23473041 .00032212 00000-0 13797-2 0 9998 2 63237 97.4175 184.1608 0005016 280.2160 79.8511 15.22703346 33241 TEVEL2-7 1 63238U 25052AE 25292.24396349 .00032853 00000-0 14116-2 0 9992 2 63238 97.4178 184.1535 0005102 280.3545 79.7116 15.22591164 33241 TEVEL2-8 1 63239U 25052AF 25292.24862296 .00032472 00000-0 13965-2 0 9990 2 63239 97.4175 184.1454 0005182 280.4623 79.6029 15.22561976 33245 HYDRA-W 1 63490U 25052BL 25291.94398156 .00092356 00000-0 28818-2 0 9994 2 63490 97.4110 185.3045 0005647 270.8354 89.2241 15.32834193 33307 HADES-ICM (SO-125) 1 63492U 25052BN 25292.21245394 .00090193 00000-0 29095-2 0 9997 2 63492 97.4116 185.4222 0006247 276.0557 83.9973 15.31773456 33332